,,Stat5,,Stat1,,Stat2,,Stat3,,Stat4,,Wind1,,Wind1,
time,status,PA1M_AVG,status,PR1M_SUM,status,RH1M_AVG,status,SR1M_AVG,status,TA1M_AVG,status,W1dAve1m,status,W1sAve1m,
2000-05-04, 00:00:00,VALID,919.45,VALID,0,VALID,94.9812,VALID,-0.0169808,VALID,19.2285,VALID,204,VALID,0.0228041,
2000-05-04, 00:01:00,VALID,919.45,VALID,0,VALID,95.1097,VALID,-0.0509425,VALID,19.2186,VALID,192,VALID,0,
2000-05-04, 00:02:00,VALID,919.414,VALID,0,VALID,95.083,VALID,-0.0679233,VALID,19.2089,VALID,192,VALID,0,
2000-05-04, 00:03:01,VALID,919.357,VALID,0,VALID,94.835,VALID,-0.0169808,VALID,19.1766,VALID,192,VALID,0,
2000-05-04, 00:04:00,VALID,919.299,VALID,0,VALID,95.1109,VALID,-0.0679233,VALID,19.1441,VALID,192,VALID,0,
2000-05-04, 00:05:01,VALID,919.24,VALID,0,VALID,95.5318,VALID,-0.0339617,VALID,19.1311,VALID,202,VALID,0,
2000-05-04, 00:06:00,VALID,919.195,VALID,0,VALID,95.6793,VALID,-0.0679233,VALID,19.1152,VALID,204,VALID,0,
2000-05-04, 00:07:01,VALID,919.171,VALID,0,VALID,95.7696,VALID,-0.0509425,VALID,19.0894,VALID,207,VALID,0,
2000-05-04, 00:08:00,VALID,919.155,VALID,0,VALID,95.7785,VALID,-0.0339617,VALID,19.0797,VALID,215,VALID,0.323918,
2000-05-04, 00:09:00,VALID,919.161,VALID,0,VALID,96.1269,VALID,-0.0169808,VALID,19.073,VALID,217,VALID,0.336167,
2000-05-04, 00:10:00,VALID,919.179,VALID,0,VALID,96.3101,VALID,-0.0339617,VALID,19.0802,VALID,197,VALID,0,
2000-05-04, 00:11:00,VALID,919.19,VALID,0,VALID,96.6038,VALID,-0.0339617,VALID,19.0961,VALID,192,VALID,0,
2000-05-04, 00:12:00,VALID,919.179,VALID,0,VALID,96.5377,VALID,-0.0169808,VALID,19.1088,VALID,197,VALID,0,
2000-05-04, 00:13:00,VALID,919.168,VALID,0,VALID,96.029,VALID,-0.0169808,VALID,19.1281,VALID,188,VALID,0,
2000-05-04, 00:14:00,VALID,919.152,VALID,0,VALID,95.6857,VALID,-0.0169808,VALID,19.151,VALID,185,VALID,0,
2000-05-04, 00:15:00,VALID,919.114,VALID,0,VALID,95.7442,VALID,-0.0339617,VALID,19.1572,VALID,188,VALID,0,
2000-05-04, 00:16:00,VALID,919.086,VALID,0,VALID,95.6476,VALID,-0.0679233,VALID,19.1443,VALID,186,VALID,0,
2000-05-04, 00:17:00,VALID,919.075,VALID,0,VALID,95.7887,VALID,-0.0509425,VALID,19.1353,VALID,176,VALID,0.122098,
2000-05-04, 00:18:00,VALID,919.054,VALID,0,VALID,95.5763,VALID,-0.0339617,VALID,19.1122,VALID,160,VALID,0.533923,
2000-05-04, 00:19:00,VALID,919.034,VALID,0,VALID,95.734,VALID,-0.0169808,VALID,19.0921,VALID,167,VALID,0.679087,
2000-05-04, 00:20:01,VALID,919.013,VALID,0,VALID,96.7602,VALID,-0.0169808,VALID,19.1478,VALID,206,VALID,0.80625,
2000-05-04, 00:21:00,VALID,919,VALID,0,VALID,96.9751,VALID,-0.0509425,VALID,19.1669,VALID,219,VALID,0.824424,
2000-05-04, 00:22:00,VALID,918.97,VALID,0,VALID,97.1379,VALID,-0.0169808,VALID,19.2057,VALID,219,VALID,0.850123,
2000-05-04, 00:23:00,VALID,918.949,VALID,0,VALID,97.1582,VALID,-0.0509425,VALID,19.2352,VALID,220,VALID,0.945913,
2000-05-04, 00:24:01,VALID,918.927,VALID,0,VALID,96.9433,VALID,-0.0509425,VALID,19.2248,VALID,215,VALID,0.942107,
2000-05-04, 00:25:00,VALID,918.892,VALID,0,VALID,96.8619,VALID,-0.0849042,VALID,19.2385,VALID,217,VALID,0.963742,
2000-05-04, 00:26:01,VALID,918.862,VALID,0,VALID,97.0934,VALID,-0.0679233,VALID,19.2479,VALID,220,VALID,1.24265,
2000-05-04, 00:27:00,VALID,918.831,VALID,0,VALID,97.0857,VALID,-0.0679233,VALID,19.238,VALID,220,VALID,0.819336,
2000-05-04, 00:28:01,VALID,918.821,VALID,0,VALID,97.101,VALID,-0.0679233,VALID,19.2154,VALID,221,VALID,0.796224,
2000-05-04, 00:29:00,VALID,918.807,VALID,0,VALID,97.143,VALID,-0.0679233,VALID,19.2161,VALID,203,VALID,0.643663,
2000-05-04, 00:30:00,VALID,918.805,VALID,0,VALID,97.1862,VALID,-0.0509425,VALID,19.1928,VALID,209,VALID,0.737753,
2000-05-04, 00:31:01,VALID,918.803,VALID,0,VALID,97.3095,VALID,-0.0509425,VALID,19.2029,VALID,216,VALID,0.72903,
2000-05-04, 00:32:00,VALID,918.792,VALID,0,VALID,97.3846,VALID,-0.0169808,VALID,19.193,VALID,214,VALID,0.820313,
2000-05-04, 00:33:00,VALID,918.785,VALID,0,VALID,97.4558,VALID,-0.0339617,VALID,19.1831,VALID,212,VALID,0.910684,
2000-05-04, 00:34:00,VALID,918.787,VALID,0,VALID,97.5473,VALID,-0.0169808,VALID,19.1667,VALID,215,VALID,1.0076,
2000-05-04, 00:35:01,VALID,918.774,VALID,0,VALID,97.6134,VALID,-0.0509425,VALID,19.1475,VALID,214,VALID,0.859375,
2000-05-04, 00:36:01,VALID,918.777,VALID,0,VALID,97.6936,VALID,-0.0169808,VALID,19.1346,VALID,205,VALID,0.758235,
2000-05-04, 00:37:00,VALID,918.779,VALID,0,VALID,97.7139,VALID,0.0169808,VALID,19.1346,VALID,202,VALID,0.679878,
2000-05-04, 00:38:00,VALID,918.781,VALID,0,VALID,97.8156,VALID,-0.0679233,VALID,19.1448,VALID,191,VALID,0.945703,
2000-05-04, 00:39:01,VALID,918.781,VALID,0,VALID,97.7406,VALID,-0.0339617,VALID,19.1505,VALID,176,VALID,0.719778,
2000-05-04, 00:40:00,VALID,918.773,VALID,0,VALID,97.5486,VALID,-0.0169808,VALID,19.1279,VALID,164,VALID,0.68201,
2000-05-04, 00:41:00,VALID,918.756,VALID,0,VALID,97.101,VALID,-0.0169808,VALID,19.0859,VALID,142,VALID,0.786523,
2000-05-04, 00:42:01,VALID,918.758,VALID,0,VALID,96.7602,VALID,-0.0169808,VALID,19.061,VALID,139,VALID,0.836143,
2000-05-04, 00:43:01,VALID,918.726,VALID,0,VALID,97.0107,VALID,-0.0339617,VALID,19.0638,VALID,160,VALID,0.691741,
2000-05-04, 00:44:00,VALID,918.705,VALID,0,VALID,97.3706,VALID,-0.0339617,VALID,19.0866,VALID,176,VALID,0.989583,
2000-05-04, 00:45:00,VALID,918.671,VALID,0,VALID,97.4532,VALID,-0.0339617,VALID,19.1155,VALID,188,VALID,0.916233,
2000-05-04, 00:46:01,VALID,918.637,VALID,0,VALID,97.4621,VALID,-0.0509425,VALID,19.1152,VALID,191,VALID,0.934333,
2000-05-04, 00:47:00,VALID,918.609,VALID,0,VALID,97.541,VALID,-0.0339617,VALID,19.1281,VALID,198,VALID,1.02584,
2000-05-04, 00:48:00,VALID,918.572,VALID,0,VALID,97.5283,VALID,-0.0169808,VALID,19.1736,VALID,203,VALID,0.813528,
2000-05-04, 00:49:00,VALID,918.544,VALID,0,VALID,97.4672,VALID,-0.0679233,VALID,19.2024,VALID,212,VALID,0.720395,
2000-05-04, 00:50:00,VALID,918.511,VALID,0,VALID,97.3159,VALID,-0.0679233,VALID,19.2452,VALID,214,VALID,0.781672,
2000-05-04, 00:51:00,VALID,918.498,VALID,0,VALID,97.1684,VALID,-0.0849042,VALID,19.2648,VALID,222,VALID,0.923177,
2000-05-04, 00:52:00,VALID,918.479,VALID,0,VALID,97.1074,VALID,-0.0679233,VALID,19.2839,VALID,213,VALID,0.849029,
2000-05-04, 00:53:01,VALID,918.47,VALID,0,VALID,97.0692,VALID,-0.0679233,VALID,19.2897,VALID,228,VALID,0.739926,
2000-05-04, 00:54:01,VALID,918.464,VALID,0,VALID,96.9535,VALID,-0.0849042,VALID,19.2931,VALID,217,VALID,0.855769,
2000-05-04, 00:55:00,VALID,918.482,VALID,0,VALID,96.8683,VALID,-0.0849042,VALID,19.2867,VALID,211,VALID,0.741587,
2000-05-04, 00:56:01,VALID,918.487,VALID,0,VALID,96.8467,VALID,-0.0679233,VALID,19.2571,VALID,197,VALID,0.620988,
2000-05-04, 00:57:00,VALID,918.48,VALID,0,VALID,96.8874,VALID,-0.0679233,VALID,19.2511,VALID,200,VALID,0.895148,
2000-05-04, 00:58:00,VALID,918.482,VALID,0,VALID,97.0578,VALID,-0.0339617,VALID,19.2576,VALID,189,VALID,1.16086,
2000-05-04, 00:59:00,VALID,918.479,VALID,0,VALID,97.176,VALID,-0.0679233,VALID,19.2671,VALID,192,VALID,1.33954,
2000-05-04, 01:00:00,VALID,918.462,VALID,0,VALID,97.0501,VALID,-0.0849042,VALID,19.2805,VALID,204,VALID,1.00335,
2000-05-04, 01:01:00,VALID,918.449,VALID,0,VALID,97.0171,VALID,-0.0679233,VALID,19.2996,VALID,196,VALID,1.09416,
2000-05-04, 01:02:00,VALID,918.427,VALID,0,VALID,96.8925,VALID,-0.0849042,VALID,19.3158,VALID,196,VALID,1.1989,
2000-05-04, 01:03:00,VALID,918.405,VALID,0,VALID,96.8022,VALID,-0.0509425,VALID,19.3414,VALID,212,VALID,0.87283,
2000-05-04, 01:04:00,VALID,918.388,VALID,0,VALID,96.7348,VALID,-0.0679233,VALID,19.364,VALID,200,VALID,0.940538,
2000-05-04, 01:05:00,VALID,918.367,VALID,0,VALID,96.7068,VALID,-0.0339617,VALID,19.3928,VALID,200,VALID,0.883635,
2000-05-04, 01:06:01,VALID,918.342,VALID,0,VALID,96.6445,VALID,-0.0509425,VALID,19.4027,VALID,206,VALID,0.92537,
2000-05-04, 01:07:00,VALID,918.326,VALID,0,VALID,96.5835,VALID,-0.0849042,VALID,19.4124,VALID,210,VALID,0.757813,
2000-05-04, 01:08:00,VALID,918.31,VALID,0,VALID,96.5186,VALID,-0.0169808,VALID,19.3995,VALID,207,VALID,0.768973,
2000-05-04, 01:09:00,VALID,918.279,VALID,0,VALID,96.5898,VALID,-0.0169808,VALID,19.3896,VALID,212,VALID,0.820107,
2000-05-04, 01:10:00,VALID,918.265,VALID,0,VALID,96.6076,VALID,-0.0509425,VALID,19.3771,VALID,225,VALID,0.364183,
2000-05-04, 01:11:01,VALID,918.233,VALID,0,VALID,96.6458,VALID,-0.0339617,VALID,19.354,VALID,207,VALID,0.848437,
2000-05-04, 01:12:01,VALID,918.216,VALID,0,VALID,96.7818,VALID,-0.0509425,VALID,19.354,VALID,207,VALID,1.21073,
2000-05-04, 01:13:00,VALID,918.195,VALID,0,VALID,96.7805,VALID,-0.0169808,VALID,19.3672,VALID,213,VALID,0.656867,
2000-05-04, 01:14:00,VALID,918.157,VALID,0,VALID,96.6966,VALID,-0.101885,VALID,19.367,VALID,211,VALID,1.13401,
2000-05-04, 01:15:01,VALID,918.135,VALID,0,VALID,96.4817,VALID,-0.0849042,VALID,19.367,VALID,211,VALID,1.11739,
2000-05-04, 01:16:00,VALID,918.114,VALID,0,VALID,96.174,VALID,-0.0679233,VALID,19.3637,VALID,218,VALID,1.23718,
2000-05-04, 01:17:00,VALID,918.096,VALID,0,VALID,95.8955,VALID,-0.0169808,VALID,19.3871,VALID,214,VALID,1.15579,
2000-05-04, 01:18:00,VALID,918.085,VALID,0,VALID,95.6336,VALID,-0.0679233,VALID,19.4127,VALID,218,VALID,1.0082,
2000-05-04, 01:19:01,VALID,918.064,VALID,0,VALID,95.411,VALID,-0.0339617,VALID,19.4321,VALID,202,VALID,1.11849,
2000-05-04, 01:20:00,VALID,918.05,VALID,0,VALID,95.2699,VALID,-0.101885,VALID,19.4577,VALID,210,VALID,1.22222,
2000-05-04, 01:21:01,VALID,918.028,VALID,0,VALID,95.1059,VALID,-0.0679233,VALID,19.4932,VALID,211,VALID,0.940034,
2000-05-04, 01:22:01,VALID,917.988,VALID,0,VALID,94.924,VALID,-0.0509425,VALID,19.5185,VALID,197,VALID,0.852796,
2000-05-04, 01:23:00,VALID,917.975,VALID,0,VALID,94.4192,VALID,0.0339617,VALID,19.5337,VALID,195,VALID,1.09722,
2000-05-04, 01:24:00,VALID,917.956,VALID,0,VALID,93.7783,VALID,0.0509425,VALID,19.5466,VALID,190,VALID,1.13387,
2000-05-04, 01:25:01,VALID,917.946,VALID,0,VALID,93.3549,VALID,0.0339617,VALID,19.6115,VALID,191,VALID,1.13802,
2000-05-04, 01:26:01,VALID,917.942,VALID,0,VALID,92.8068,VALID,0.0509425,VALID,19.6401,VALID,189,VALID,1.21402,
2000-05-04, 01:27:01,VALID,917.928,VALID,0,VALID,92.6567,VALID,0.0339617,VALID,19.7044,VALID,185,VALID,0.977196,
2000-05-04, 01:28:01,VALID,917.911,VALID,0,VALID,92.3414,VALID,0.0339617,VALID,19.7109,VALID,185,VALID,1.0484,
2000-05-04, 01:29:01,VALID,917.903,VALID,0,VALID,91.5632,VALID,0.0169808,VALID,19.7181,VALID,188,VALID,1.00566,
2000-05-04, 01:30:01,VALID,917.878,VALID,0,VALID,91.7425,VALID,0.0339617,VALID,19.7372,VALID,192,VALID,0.856702,
2000-05-04, 01:31:01,VALID,917.84,VALID,0,VALID,91.9281,VALID,0.0339617,VALID,19.7469,VALID,197,VALID,0.810389,
2000-05-04, 01:32:01,VALID,917.809,VALID,0,VALID,92.04,VALID,0.0169808,VALID,19.7278,VALID,202,VALID,0.886523,
2000-05-04, 01:33:01,VALID,917.783,VALID,0,VALID,92.2333,VALID,0.0509425,VALID,19.7213,VALID,209,VALID,0.828536,
2000-05-04, 01:34:01,VALID,917.766,VALID,0,VALID,92.3287,VALID,0.0509425,VALID,19.734,VALID,209,VALID,0.823214,
2000-05-04, 01:35:01,VALID,917.755,VALID,0,VALID,92.3922,VALID,0.0169808,VALID,19.7203,VALID,216,VALID,0.66847,
2000-05-04, 01:36:01,VALID,917.74,VALID,0,VALID,92.4253,VALID,0.0169808,VALID,19.7472,VALID,208,VALID,0.392795,
2000-05-04, 01:37:01,VALID,917.744,VALID,0,VALID,92.5741,VALID,-0.0339617,VALID,19.7184,VALID,200,VALID,0.41913,
2000-05-04, 01:38:01,VALID,917.744,VALID,0,VALID,92.9568,VALID,-0.0509425,VALID,19.6706,VALID,171,VALID,0.447316,
2000-05-04, 01:39:01,VALID,917.756,VALID,0,VALID,93.2506,VALID,-0.0849042,VALID,19.5963,VALID,148,VALID,0.570724,
2000-05-04, 01:40:01,VALID,917.769,VALID,0,VALID,93.4795,VALID,-0.0509425,VALID,19.5091,VALID,125,VALID,0.693873,
2000-05-04, 01:41:01,VALID,917.772,VALID,0,VALID,93.8902,VALID,-0.0509425,VALID,19.4122,VALID,109,VALID,0.823691,
2000-05-04, 01:42:01,VALID,917.786,VALID,0,VALID,94.1216,VALID,-0.0339617,VALID,19.3441,VALID,109,VALID,0.680556,
2000-05-04, 01:43:01,VALID,917.789,VALID,0,VALID,94.4116,VALID,-0.0339617,VALID,19.2698,VALID,108,VALID,0.388514,
2000-05-04, 01:44:01,VALID,917.795,VALID,0,VALID,94.8197,VALID,-0.0509425,VALID,19.2278,VALID,97,VALID,0.438734,
2000-05-04, 01:45:01,VALID,917.805,VALID,0,VALID,95.0194,VALID,-0.101885,VALID,19.2087,VALID,92,VALID,0.260617,
2000-05-04, 01:46:01,VALID,917.811,VALID,0,VALID,95.0626,VALID,-0.0509425,VALID,19.2017,VALID,90,VALID,0.298277,
2000-05-04, 01:47:01,VALID,917.807,VALID,0,VALID,94.9431,VALID,-0.0849042,VALID,19.2027,VALID,91,VALID,0,
2000-05-04, 01:48:01,VALID,917.796,VALID,0,VALID,94.9329,VALID,-0.0509425,VALID,19.1928,VALID,91,VALID,0,
2000-05-04, 01:49:01,VALID,917.785,VALID,0,VALID,94.9291,VALID,-0.0849042,VALID,19.192,VALID,91,VALID,0.429888,
2000-05-04, 01:50:00,VALID,917.782,VALID,0,VALID,94.779,VALID,-0.0679233,VALID,19.232,VALID,91,VALID,0.521234,
2000-05-04, 01:51:00,VALID,917.779,VALID,0,VALID,94.4993,VALID,-0.0849042,VALID,19.2313,VALID,93,VALID,0.557215,
2000-05-04, 01:52:00,VALID,917.779,VALID,0,VALID,94.3963,VALID,-0.0679233,VALID,19.228,VALID,96,VALID,0.476357,
2000-05-04, 01:53:00,VALID,917.778,VALID,0,VALID,94.4077,VALID,-0.101885,VALID,19.2357,VALID,96,VALID,0.111275,
2000-05-04, 01:54:00,VALID,917.765,VALID,0,VALID,94.5324,VALID,-0.101885,VALID,19.2037,VALID,96,VALID,0,
2000-05-04, 01:55:00,VALID,917.76,VALID,0,VALID,94.7066,VALID,-0.101885,VALID,19.1713,VALID,96,VALID,0,
2000-05-04, 01:56:00,VALID,917.753,VALID,0,VALID,94.8426,VALID,-0.101885,VALID,19.1122,VALID,95,VALID,0,
2000-05-04, 01:57:00,VALID,917.758,VALID,0,VALID,95.0524,VALID,-0.101885,VALID,19.0747,VALID,89,VALID,0.616776,
2000-05-04, 01:58:00,VALID,917.766,VALID,0,VALID,95.4161,VALID,-0.101885,VALID,19.0253,VALID,80,VALID,1.27626,
2000-05-04, 01:59:00,VALID,917.778,VALID,0,VALID,95.6386,VALID,-0.101885,VALID,19.0294,VALID,81,VALID,1.38884,
2000-05-04, 02:00:00,VALID,917.784,VALID,0,VALID,95.8421,VALID,-0.0849042,VALID,19.0031,VALID,79,VALID,0.865954,
2000-05-04, 02:01:00,VALID,917.786,VALID,0,VALID,96.0163,VALID,-0.101885,VALID,18.993,VALID,66,VALID,0.592548,
2000-05-04, 02:02:00,VALID,917.782,VALID,0,VALID,96.0672,VALID,-0.101885,VALID,19.0131,VALID,73,VALID,0.458398,
2000-05-04, 02:03:00,VALID,917.782,VALID,0,VALID,96.1091,VALID,-0.101885,VALID,19.0128,VALID,58,VALID,0.44449,
2000-05-04, 02:04:00,VALID,917.792,VALID,0,VALID,96.1155,VALID,-0.101885,VALID,19.0193,VALID,37,VALID,0.234169,
2000-05-04, 02:05:00,VALID,917.789,VALID,0,VALID,96.1638,VALID,-0.101885,VALID,19.0384,VALID,46,VALID,0,
2000-05-04, 02:06:00,VALID,917.78,VALID,0,VALID,96.2592,VALID,-0.101885,VALID,19.061,VALID,81,VALID,0,
2000-05-04, 02:07:00,VALID,917.77,VALID,0,VALID,96.38,VALID,-0.0169808,VALID,19.0797,VALID,81,VALID,0.0240385,
2000-05-04, 02:08:00,VALID,917.778,VALID,0,VALID,96.3558,VALID,0,VALID,19.1016,VALID,83,VALID,0.0202206,
2000-05-04, 02:09:00,VALID,917.768,VALID,0,VALID,96.2503,VALID,-0.0169808,VALID,19.1252,VALID,83,VALID,0,
2000-05-04, 02:10:00,VALID,917.766,VALID,0,VALID,96.0061,VALID,0,VALID,19.1217,VALID,83,VALID,0,
2000-05-04, 02:11:00,VALID,917.749,VALID,0,VALID,95.9731,VALID,0,VALID,19.1214,VALID,83,VALID,0,
2000-05-04, 02:12:00,VALID,917.74,VALID,0,VALID,95.9909,VALID,0,VALID,19.1374,VALID,83,VALID,0,
2000-05-04, 02:13:00,VALID,917.719,VALID,0,VALID,95.7671,VALID,0,VALID,19.1508,VALID,83,VALID,0,
2000-05-04, 02:14:00,VALID,917.715,VALID,0,VALID,95.9337,VALID,0.0169808,VALID,19.1701,VALID,83,VALID,0,
2000-05-04, 02:15:00,VALID,917.696,VALID,0,VALID,95.8345,VALID,0,VALID,19.1764,VALID,90,VALID,0.0734797,
2000-05-04, 02:16:00,VALID,917.695,VALID,0,VALID,95.2724,VALID,0,VALID,19.1664,VALID,93,VALID,0,
2000-05-04, 02:17:00,VALID,917.691,VALID,0,VALID,95.0957,VALID,0,VALID,19.1533,VALID,91,VALID,0,
2000-05-04, 02:18:00,VALID,917.679,VALID,0,VALID,95.4657,VALID,0,VALID,19.16,VALID,91,VALID,0,
2000-05-04, 02:19:00,VALID,917.677,VALID,0,VALID,95.7238,VALID,0.0169808,VALID,19.1565,VALID,91,VALID,0,
2000-05-04, 02:20:00,VALID,917.667,VALID,0,VALID,95.7938,VALID,0,VALID,19.1704,VALID,91,VALID,0,
2000-05-04, 02:21:00,VALID,917.654,VALID,0,VALID,95.5598,VALID,0.0169808,VALID,19.16,VALID,91,VALID,0,
2000-05-04, 02:22:00,VALID,917.651,VALID,0,VALID,95.1516,VALID,0,VALID,19.1701,VALID,96,VALID,0,
2000-05-04, 02:23:00,VALID,917.632,VALID,0,VALID,94.4675,VALID,-0.0339617,VALID,19.1669,VALID,100,VALID,0,
2000-05-04, 02:24:00,VALID,917.619,VALID,0,VALID,92.3045,VALID,0,VALID,19.1408,VALID,104,VALID,0,
2000-05-04, 02:25:00,VALID,917.614,VALID,0,VALID,90.4085,VALID,-0.0339617,VALID,19.1115,VALID,143,VALID,0,
2000-05-04, 02:26:00,VALID,917.6,VALID,0,VALID,91.0316,VALID,-0.0339617,VALID,19.1021,VALID,160,VALID,0,
2000-05-04, 02:27:00,VALID,917.581,VALID,0,VALID,88.0103,VALID,0,VALID,19.0571,VALID,168,VALID,0,
2000-05-04, 02:28:00,VALID,917.575,VALID,0,VALID,86.787,VALID,-0.0169808,VALID,19.0543,VALID,161,VALID,0,
2000-05-04, 02:29:00,VALID,917.565,VALID,0,VALID,88.0815,VALID,-0.0169808,VALID,19.0797,VALID,149,VALID,0,
2000-05-04, 02:30:00,VALID,917.552,VALID,0,VALID,88.1565,VALID,-0.0169808,VALID,19.0929,VALID,148,VALID,0,
2000-05-04, 02:31:00,VALID,917.55,VALID,0,VALID,87.1469,VALID,-0.0169808,VALID,19.0795,VALID,147,VALID,0,
2000-05-04, 02:32:00,VALID,917.546,VALID,0,VALID,86.9154,VALID,0,VALID,19.0795,VALID,147,VALID,0,
2000-05-04, 02:33:00,VALID,917.528,VALID,0,VALID,87.845,VALID,0,VALID,19.0829,VALID,158,VALID,0,
2000-05-04, 02:34:00,VALID,917.524,VALID,0,VALID,89.2679,VALID,-0.0169808,VALID,19.073,VALID,150,VALID,0.416174,
2000-05-04, 02:35:00,VALID,917.528,VALID,0,VALID,90.0906,VALID,0.0169808,VALID,19.0375,VALID,144,VALID,0.998355,
2000-05-04, 02:36:00,VALID,917.525,VALID,0,VALID,88.2125,VALID,0,VALID,19.0116,VALID,138,VALID,0.91266,
2000-05-04, 02:37:00,VALID,917.53,VALID,0,VALID,87.4076,VALID,0,VALID,18.9915,VALID,135,VALID,0.733173,
2000-05-04, 02:38:00,VALID,917.549,VALID,0,VALID,86.946,VALID,0,VALID,19.0116,VALID,134,VALID,0.656039,
2000-05-04, 02:39:00,VALID,917.548,VALID,0,VALID,88.3931,VALID,0,VALID,19.0345,VALID,143,VALID,0.733758,
2000-05-04, 02:40:00,VALID,917.55,VALID,0,VALID,88.4121,VALID,0.0169808,VALID,19.0183,VALID,138,VALID,0.79387,
2000-05-04, 02:41:00,VALID,917.556,VALID,0,VALID,88.669,VALID,0,VALID,18.9888,VALID,146,VALID,0.746795,
2000-05-04, 02:42:00,VALID,917.545,VALID,0,VALID,87.8335,VALID,0,VALID,18.9634,VALID,150,VALID,0.938189,
2000-05-04, 02:43:00,VALID,917.532,VALID,0,VALID,88.6563,VALID,0,VALID,18.9281,VALID,153,VALID,0.88528,
2000-05-04, 02:44:00,VALID,917.537,VALID,0,VALID,89.8223,VALID,0,VALID,18.8822,VALID,160,VALID,0.577069,
2000-05-04, 02:45:00,VALID,917.546,VALID,0,VALID,90.3742,VALID,0,VALID,18.863,VALID,167,VALID,0.502387,
2000-05-04, 02:46:00,VALID,917.553,VALID,0,VALID,91.2745,VALID,0,VALID,18.8213,VALID,160,VALID,0.445747,
2000-05-04, 02:47:00,VALID,917.558,VALID,0,VALID,90.139,VALID,0,VALID,18.7795,VALID,158,VALID,0.42866,
2000-05-04, 02:48:00,VALID,917.565,VALID,0,VALID,90.8078,VALID,0,VALID,18.7438,VALID,164,VALID,0.430304,
2000-05-04, 02:49:00,VALID,917.572,VALID,0,VALID,89.2806,VALID,0,VALID,18.7082,VALID,174,VALID,0.349392,
2000-05-04, 02:50:00,VALID,917.569,VALID,0,VALID,91.5848,VALID,0.0169808,VALID,18.7271,VALID,184,VALID,0.397098,
2000-05-04, 02:51:00,VALID,917.565,VALID,0,VALID,92.1341,VALID,0,VALID,18.711,VALID,204,VALID,0.304276,
2000-05-04, 02:52:00,VALID,917.566,VALID,0,VALID,92.2918,VALID,0.0169808,VALID,18.6946,VALID,204,VALID,0.407652,
2000-05-04, 02:53:00,VALID,917.573,VALID,0,VALID,92.658,VALID,0,VALID,18.6695,VALID,256,VALID,0.313117,
2000-05-04, 02:54:00,VALID,917.581,VALID,0,VALID,91.3037,VALID,0,VALID,18.6206,VALID,266,VALID,0.182771,
2000-05-04, 02:55:00,VALID,917.607,VALID,0,VALID,88.2265,VALID,-0.0169808,VALID,18.5984,VALID,249,VALID,0.0078125,
2000-05-04, 02:56:00,VALID,917.622,VALID,0,VALID,88.9335,VALID,-0.0339617,VALID,18.6305,VALID,242,VALID,0.0120192,
2000-05-04, 02:57:00,VALID,917.63,VALID,0,VALID,92.3757,VALID,-0.0169808,VALID,18.6953,VALID,241,VALID,0.658053,
2000-05-04, 02:58:00,VALID,917.654,VALID,0,VALID,94.2284,VALID,-0.0169808,VALID,18.7435,VALID,229,VALID,0.713742,
2000-05-04, 02:59:00,VALID,917.661,VALID,0,VALID,94.718,VALID,0,VALID,18.7534,VALID,227,VALID,0.610294,
2000-05-04, 03:00:00,VALID,917.677,VALID,0,VALID,95.2419,VALID,0,VALID,18.7629,VALID,217,VALID,0.430664,
2000-05-04, 03:01:00,VALID,917.683,VALID,0,VALID,95.6984,VALID,-0.0169808,VALID,18.7987,VALID,236,VALID,0.548611,
2000-05-04, 03:02:00,VALID,917.693,VALID,0,VALID,96.0405,VALID,-0.0169808,VALID,18.8054,VALID,237,VALID,0.383898,
2000-05-04, 03:03:00,VALID,917.697,VALID,0,VALID,96.1804,VALID,-0.0339617,VALID,18.8051,VALID,237,VALID,0.577492,
2000-05-04, 03:04:00,VALID,917.703,VALID,0,VALID,96.4448,VALID,-0.0339617,VALID,18.8019,VALID,233,VALID,0.832648,
2000-05-04, 03:05:00,VALID,917.7,VALID,0,VALID,96.6826,VALID,-0.0169808,VALID,18.7853,VALID,237,VALID,0.638238,
2000-05-04, 03:06:00,VALID,917.713,VALID,0,VALID,96.8632,VALID,0,VALID,18.786,VALID,236,VALID,0.591427,
2000-05-04, 03:07:00,VALID,917.723,VALID,0,VALID,97.04,VALID,-0.0339617,VALID,18.7534,VALID,229,VALID,0.494141,
2000-05-04, 03:08:00,VALID,917.721,VALID,0,VALID,97.1836,VALID,-0.0509425,VALID,18.7601,VALID,223,VALID,0.488487,
2000-05-04, 03:09:00,VALID,917.714,VALID,0,VALID,97.3159,VALID,-0.0509425,VALID,18.7274,VALID,233,VALID,0.227829,
2000-05-04, 03:10:00,VALID,917.702,VALID,0,VALID,97.4036,VALID,-0.0339617,VALID,18.7179,VALID,226,VALID,0,
2000-05-04, 03:11:00,VALID,917.693,VALID,0,VALID,97.4888,VALID,-0.0169808,VALID,18.708,VALID,227,VALID,0,
2000-05-04, 03:12:00,VALID,917.693,VALID,0,VALID,97.5855,VALID,-0.0169808,VALID,18.711,VALID,227,VALID,0,
2000-05-04, 03:13:00,VALID,917.683,VALID,0,VALID,97.6147,VALID,-0.0339617,VALID,18.7209,VALID,222,VALID,0,
2000-05-04, 03:14:00,VALID,917.691,VALID,0,VALID,97.6376,VALID,-0.0169808,VALID,18.7405,VALID,139,VALID,0,
2000-05-04, 03:15:00,VALID,917.682,VALID,0,VALID,97.5575,VALID,-0.0169808,VALID,18.7502,VALID,127,VALID,0,
2000-05-04, 03:16:00,VALID,917.679,VALID,0,VALID,97.424,VALID,-0.0169808,VALID,18.7634,VALID,117,VALID,0,
2000-05-04, 03:17:00,VALID,917.675,VALID,0,VALID,97.2421,VALID,0,VALID,18.7733,VALID,101,VALID,0,
2000-05-04, 03:18:00,VALID,917.686,VALID,0,VALID,96.9344,VALID,-0.0339617,VALID,18.7629,VALID,104,VALID,0,
2000-05-04, 03:19:00,VALID,917.683,VALID,0,VALID,96.4843,VALID,-0.0169808,VALID,18.7463,VALID,104,VALID,0,
2000-05-04, 03:20:00,VALID,917.684,VALID,0,VALID,96.2338,VALID,-0.0169808,VALID,18.7468,VALID,104,VALID,0,
2000-05-04, 03:21:00,VALID,917.685,VALID,0,VALID,95.5496,VALID,-0.0169808,VALID,18.7472,VALID,104,VALID,0,
2000-05-04, 03:22:00,VALID,917.674,VALID,0,VALID,94.9393,VALID,-0.0509425,VALID,18.7341,VALID,104,VALID,0,
2000-05-04, 03:23:00,VALID,917.68,VALID,0,VALID,94.1496,VALID,0,VALID,18.7405,VALID,103,VALID,0,
2000-05-04, 03:24:00,VALID,917.663,VALID,0,VALID,93.9283,VALID,0,VALID,18.7567,VALID,97,VALID,0,
2000-05-04, 03:25:00,VALID,917.647,VALID,0,VALID,93.1336,VALID,0,VALID,18.7828,VALID,94,VALID,0,
2000-05-04, 03:26:00,VALID,917.638,VALID,0,VALID,90.2203,VALID,-0.0169808,VALID,18.7795,VALID,96,VALID,0,
2000-05-04, 03:27:00,VALID,917.617,VALID,0,VALID,89.3531,VALID,-0.0169808,VALID,18.8506,VALID,92,VALID,0,
2000-05-04, 03:28:00,VALID,917.598,VALID,0,VALID,88.0573,VALID,-0.0339617,VALID,18.8986,VALID,99,VALID,0,
2000-05-04, 03:29:00,VALID,917.58,VALID,0,VALID,87.5296,VALID,-0.0169808,VALID,18.9507,VALID,100,VALID,0,
2000-05-04, 03:30:00,VALID,917.577,VALID,0,VALID,88.9042,VALID,-0.0509425,VALID,19.0054,VALID,100,VALID,0,
2000-05-04, 03:31:00,VALID,917.563,VALID,0,VALID,87.5589,VALID,-0.0169808,VALID,19.0414,VALID,90,VALID,0,
2000-05-04, 03:32:00,VALID,917.555,VALID,0,VALID,88.0561,VALID,-0.0509425,VALID,19.0571,VALID,88,VALID,0,
2000-05-04, 03:33:00,VALID,917.535,VALID,0,VALID,84.6609,VALID,-0.0169808,VALID,19.0832,VALID,84,VALID,0.16636,
2000-05-04, 03:34:00,VALID,917.534,VALID,0,VALID,87.0248,VALID,-0.0169808,VALID,19.1736,VALID,88,VALID,0.506168,
2000-05-04, 03:35:00,VALID,917.518,VALID,0,VALID,88.0078,VALID,-0.0169808,VALID,19.199,VALID,88,VALID,0.471917,